Location: Unspecified
(0.0000°N, 0.0000°E)
Time: 15:59:25
(UTC+01:00)

Amateur Radio Satellites - All Passes

Search period start: 17 January 2017 15:29
Search period end: 18 January 2017 15:29
Location: Unspecified, 0.0000°N, 0.0000°E

Satellite Date Start Highest point End Downlink Frequencies (MHz)
Time Altitude Azimuth
JUGNU 17 Jan 15:33:02 15:36:37 16° 347° (NNW) 15:40:12 437.505
ITAMSAT 1 17 Jan 15:36:59 15:42:05 58° 77° (ENE) 15:47:08 435.822/435.867
YUBILEINY 17 Jan 15:37:56 15:46:33 63° 273° (W) 15:55:11 435.215
MOZHAYETS 4 17 Jan 15:45:45 15:49:55 33° 102° (ESE) 15:54:05
M-CUBED/EXP-1 PRIME 17 Jan 15:54:00 15:55:38 13° 106° (ESE) 15:57:17 437.505
Cosmos 2491 17 Jan 15:58:28 16:06:22 38° 267° (W) 16:14:22 435.465 / 435.565
BEESAT 3 17 Jan 16:01:35 16:04:45 25° 112° (ESE) 16:07:56 437.485
AO-7 17 Jan 16:06:58 16:15:17 73° 74° (ENE) 16:23:34 29.400- 29.500
CUSAT 1 17 Jan 16:07:32 16:15:07 86° 268° (W) 16:21:20 437.405
ITUPSAT 1 17 Jan 16:18:42 16:22:07 20° 282° (WNW) 16:25:33 437.325
DANDE 17 Jan 16:19:56 16:27:35 41° 85° (E) 16:34:47 436.750
AUBIESAT-1 17 Jan 16:32:17 16:35:27 46° 106° (ESE) 16:38:43 437.475
BEESAT 2 17 Jan 16:38:08 16:41:28 27° 112° (ESE) 16:44:48 435.950
KKS-1 17 Jan 16:51:44 16:56:06 64° 103° (ESE) 17:00:30 437.445
SRMSAT 17 Jan 16:53:08 16:58:08 27° 342° (NNW) 17:03:08 437.500
Cosmos 2504 17 Jan 17:15:59 17:22:17 22° 273° (W) 17:28:33 435.465 / 435.565
MOZHAYETS 4 17 Jan 17:25:21 17:26:47 11° 282° (WNW) 17:28:14
M-CUBED/EXP-1 PRIME 17 Jan 17:28:40 17:29:54 12° 285° (WNW) 17:31:10 437.505
BRITE-PL 17 Jan 17:41:22 17:46:44 90° 255° (WSW) 17:52:21 437.365/2234.400
STARS 17 Jan 17:55:15 17:59:22 43° 282° (WNW) 18:03:32 437.465
CUBESAT XI-V 17 Jan 17:58:28 18:02:51 42° 282° (WNW) 18:07:13 437.345
CUTE-I 17 Jan 18:02:24 18:05:46 17° 77° (ENE) 18:09:07 437.470
DANDE 17 Jan 18:03:08 18:09:56 28° 267° (W) 18:16:23 436.750
GOMX 1 17 Jan 18:03:58 18:09:20 59° 78° (ENE) 18:14:43 467.674
AO-7 17 Jan 18:04:00 18:07:35 13° 252° (WSW) 18:11:10 29.400- 29.500
HORYU 2 17 Jan 18:14:23 18:18:49 83° 259° (WSW) 18:23:13 437.375
O/OREOS (USA 219) 17 Jan 18:20:38 18:24:36 30° 76° (ENE) 18:28:35 437.305
NOAA 18 17 Jan 18:20:42 18:23:07 13° 76° (ENE) 18:25:32 137.9125
Cubesat XI-IV 17 Jan 18:42:31 18:47:43 53° 78° (ENE) 18:52:53 437.490
SRMSAT 17 Jan 18:45:14 18:48:00 13° 350° (N) 18:50:45 437.500
DOVE 4 17 Jan 19:01:25 19:06:45 83° 257° (WSW) 19:11:56 437.250
SO-50 17 Jan 19:03:26 19:05:05 12° 68° (ENE) 19:06:43 436.795
NOAA 15 17 Jan 19:04:10 19:09:26 78° 257° (WSW) 19:14:42 137.62
JUGNU 17 Jan 19:15:00 19:16:52 11° 7° (N) 19:18:44 437.505
LilacSat-2 17 Jan 19:16:25 19:19:50 32° 259° (W) 19:23:13 437.200
CINEMA 3 17 Jan 19:20:08 19:24:10 27° 79° (E) 19:28:02 145.822/145.860
HO-68 17 Jan 19:29:15 19:35:07 27° 75° (ENE) 19:40:57 435.675
CUTE-I 17 Jan 19:40:54 19:45:32 31° 257° (WSW) 19:50:09 437.470
AIST 2 17 Jan 19:41:28 19:45:28 67° 111° (ESE) 19:49:29 435.215
Cosmos 2499 17 Jan 19:44:32 19:52:25 36° 94° (E) 20:00:00 435.465 / 435.565
STRAND 1 17 Jan 19:55:21 20:00:28 72° 102° (ESE) 20:05:37 437.568
NOAA 18 17 Jan 19:58:16 20:03:29 43° 256° (WSW) 20:08:40 137.9125
O/OREOS (USA 219) 17 Jan 20:02:20 20:03:44 11° 255° (WSW) 20:05:09 437.305
CUTE 1.7 + AOD 2 17 Jan 20:03:37 20:07:39 47° 79° (ENE) 20:11:42 437.475
GONETS M04 17 Jan 20:24:37 20:33:03 55° 93° (E) 20:41:27
CANX-2 17 Jan 20:32:01 20:36:06 50° 259° (WSW) 20:40:11 2200.000
CUBEBUG 2 17 Jan 20:38:08 20:42:22 47° 79° (E) 20:46:27 437.445
SO-50 17 Jan 20:41:22 20:45:16 30° 248° (WSW) 20:49:12 436.795
ISS 17 Jan 20:47:16 20:49:01 14° 126° (SE) 20:50:46 145.825
Oscar 11 17 Jan 20:48:54 20:51:15 14° 78° (ENE) 20:53:35 145.826/435.025
SEEDS 17 Jan 20:50:24 20:54:30 56° 259° (W) 20:58:36 437.485
CINEMA 3 17 Jan 20:58:12 21:00:58 15° 257° (WSW) 21:03:41 145.822/145.860
JUGNU 17 Jan 21:02:15 21:06:43 21° 16° (NNE) 21:11:11 437.505
COMPASS 1 17 Jan 21:02:27 21:06:33 65° 258° (WSW) 21:10:41 437.405
UWE-3 17 Jan 21:13:45 21:18:04 88° 78° (ENE) 21:22:15 435.000/436.395/437.385
HO-68 17 Jan 21:16:14 21:22:30 33° 255° (WSW) 21:28:46 435.675
AAUSAT CUBESAT 2 17 Jan 21:17:22 21:21:24 54° 259° (WSW) 21:25:27 437.432
FUNcube-1 17 Jan 21:19:29 21:23:31 45° 79° (ENE) 21:27:27 145.935
DELFI C3 17 Jan 21:31:35 21:33:32 13° 78° (ENE) 21:35:28 145.870
PRISM 17 Jan 21:33:03 21:36:41 31° 102° (ESE) 21:40:18 437.425
Cosmos 2499 17 Jan 21:37:41 21:45:09 31° 272° (W) 21:52:25 435.465 / 435.565
ZACube-1 17 Jan 21:40:20 21:44:34 74° 258° (WSW) 21:48:42 437.345
HUMSAT D 17 Jan 22:21:38 22:25:21 34° 79° (ENE) 22:29:02 437.325/437.525
ISS 17 Jan 22:23:02 22:25:18 17° 306° (NW) 22:27:33 145.825
Oscar 11 17 Jan 22:23:46 22:27:06 22° 258° (WSW) 22:30:27 145.826/435.025
GONETS M04 17 Jan 22:24:15 22:29:28 17° 273° (W) 22:34:42
SRMSAT 17 Jan 22:25:42 22:28:38 14° 11° (N) 22:31:34 437.500
UNISAT 6 17 Jan 22:29:40 22:34:01 46° 102° (ESE) 22:38:28 437.425
TIGRISAT 17 Jan 22:43:54 22:48:25 67° 102° (ESE) 22:53:02 435.000
JUGNU 17 Jan 22:50:13 22:56:03 52° 21° (NNE) 23:01:52 437.505
ANTELSAT 17 Jan 22:58:15 23:02:46 71° 282° (WNW) 23:07:24 437.575/2403.000
BY70-1 17 Jan 23:03:53 23:05:10 13° 77° (ENE) 23:06:31 436.1900
DELFI C3 17 Jan 23:05:07 23:08:04 20° 259° (WSW) 23:11:00 145.870
RS-15 17 Jan 23:09:36 23:20:31 57° 110° (ESE) 23:31:56 29.354- 29.394
POPSAT HIP 1 17 Jan 23:31:14 23:33:34 14° 102° (ESE) 23:35:53 437.405
JAS-2 17 Jan 23:32:49 23:40:31 71° 104° (ESE) 23:48:19 435.910
PHONESAT 2.4 17 Jan 23:35:01 23:36:06 12° 138° (SE) 23:37:12 2401.200-2431.200
CUBEBUG 1 17 Jan 23:40:52 23:43:50 18° 78° (ENE) 23:46:45 437.445
DUCHIFAT 1 17 Jan 23:45:32 23:48:35 19° 102° (ESE) 23:51:38 145.980
NANOSAT C BR1 17 Jan 23:48:53 23:52:20 25° 102° (ESE) 23:55:48 145.865
AISAT 17 Jan 23:49:24 23:51:28 13° 78° (ENE) 23:53:31 437.250
ESTCUBE 1 17 Jan 23:55:02 23:59:27 57° 78° (ENE) 00:03:52 437.505/2401.250
SRMSAT 18 Jan 00:13:22 00:18:26 29° 18° (NNE) 00:23:30 437.500
VELOX 1 18 Jan 00:20:57 00:25:01 34° 78° (ENE) 00:29:03 145.980
BUGSAT 1 18 Jan 00:33:11 00:36:31 25° 102° (ESE) 00:39:54 437.445
QB50P1 18 Jan 00:38:24 00:42:29 51° 282° (WNW) 00:46:38 145.935-145.965
JUGNU 18 Jan 00:39:14 00:45:07 57° 201° (SSW) 00:50:59 437.505
POLYITAN 1 18 Jan 00:41:32 00:45:35 45° 282° (WNW) 00:49:41 437.675
QB50P2 18 Jan 00:42:44 00:46:42 40° 282° (WNW) 00:50:42 145.880/145.840
PCSat 18 Jan 00:43:02 00:48:20 59° 109° (ESE) 00:53:37 145.827
50 SAT 18 Jan 00:44:45 00:48:12 54° 79° (E) 00:51:41 437.505
DX 1 18 Jan 01:03:41 01:07:59 55° 78° (ENE) 01:12:15 434.975-435.025
POPSAT HIP 1 18 Jan 01:05:48 01:09:03 22° 282° (WNW) 01:12:20 437.405
PHONESAT 2.4 18 Jan 01:08:58 01:10:09 13° 318° (NW) 01:11:19 2401.200-2431.200
UKube-1 18 Jan 01:09:30 01:13:37 43° 78° (ENE) 01:17:42 .
SPROUT 18 Jan 01:13:54 01:18:08 57° 258° (WSW) 01:22:19 437.525
CUBEBUG 1 18 Jan 01:16:35 01:19:50 20° 258° (WSW) 01:23:05 437.445
TISAT 1 18 Jan 01:20:22 01:21:59 12° 78° (ENE) 01:23:35 437.305
DUCHIFAT 1 18 Jan 01:21:24 01:23:59 16° 282° (WNW) 01:26:35 145.980
JAS-2 18 Jan 01:21:32 01:25:07 14° 283° (WNW) 01:28:44 435.910
AISAT 18 Jan 01:23:52 01:27:39 27° 258° (WSW) 01:31:26 437.250
RS-15 18 Jan 01:23:54 01:32:37 25° 293° (WNW) 01:41:43 29.354- 29.394
NANOSAT C BR1 18 Jan 01:25:59 01:27:47 13° 282° (WNW) 01:29:37 145.865
Gurwin Techsat 1B 18 Jan 01:46:26 01:50:17 21° 103° (ESE) 01:54:09 435.225
Oscar 19 18 Jan 01:56:47 02:01:51 64° 102° (ESE) 02:06:55 437.125/150
SRMSAT 18 Jan 02:01:50 02:07:46 76° 21° (NNE) 02:13:42 437.500
BUGSAT 1 18 Jan 02:10:17 02:11:38 11° 282° (WNW) 02:12:59 437.445
YUBILEINY 18 Jan 02:16:10 02:23:43 33° 87° (E) 02:31:11 435.215
AO-85 18 Jan 02:23:52 02:27:40 42° 247° (WSW) 02:31:43 145.980
JUGNU 18 Jan 02:29:46 02:34:24 23° 197° (SSW) 02:38:59 437.505
Cosmos 2491 18 Jan 02:35:22 02:43:50 54° 93° (E) 02:52:13 435.465 / 435.565
AO-7 18 Jan 02:45:54 02:49:21 13° 107° (ESE) 02:52:48 29.400- 29.500
TISAT 1 18 Jan 02:53:51 02:57:21 25° 258° (WSW) 03:00:49 437.305
AIST 1 18 Jan 02:56:44 03:00:56 67° 267° (W) 03:05:10
ITUPSAT 1 18 Jan 03:02:23 03:06:51 41° 78° (ENE) 03:11:18 437.325
Gurwin Techsat 1B 18 Jan 03:25:38 03:29:56 26° 283° (WNW) 03:34:17 435.225
Cosmos 2504 18 Jan 03:33:24 03:40:24 60° 87° (E) 03:47:31 435.465 / 435.565
BEESAT 18 Jan 03:38:54 03:43:36 60° 258° (WSW) 03:48:15 436.000
SWISSCUBE 18 Jan 03:40:18 03:44:53 49° 258° (WSW) 03:49:28 437.505
SRMSAT 18 Jan 03:51:30 03:57:00 39° 200° (SSW) 04:02:30 437.500
M-CUBED/EXP-1 PRIME 18 Jan 03:51:45 03:55:14 21° 75° (ENE) 03:58:39 437.505
BEESAT 3 18 Jan 03:53:23 03:56:43 26° 68° (ENE) 04:00:04 437.485
MOZHAYETS 4 18 Jan 04:02:09 04:06:37 56° 78° (ENE) 04:11:04
ITAMSAT 1 18 Jan 04:11:54 04:16:57 52° 283° (WNW) 04:22:02 435.822/435.867
YUBILEINY 18 Jan 04:12:40 04:20:05 32° 267° (W) 04:27:33 435.215
JUGNU 18 Jan 04:22:09 04:24:11 12° 188° (S) 04:26:13 437.505
AUBIESAT-1 18 Jan 04:30:09 04:34:39 53° 75° (ENE) 04:39:01 437.475
BEESAT 2 18 Jan 04:31:10 04:34:41 30° 68° (ENE) 04:38:12 435.950
STARS 18 Jan 04:32:53 04:34:12 11° 78° (ENE) 04:35:30 437.465
AO-7 18 Jan 04:33:22 04:41:40 73° 286° (WNW) 04:49:56 29.400- 29.500
Cosmos 2491 18 Jan 04:34:53 04:40:15 18° 273° (W) 04:45:38 435.465 / 435.565
CUBESAT XI-V 18 Jan 04:41:04 04:43:57 16° 78° (ENE) 04:46:49 437.345
CUSAT 1 18 Jan 04:47:01 04:49:27 18° 281° (W) 04:52:16 437.405
KKS-1 18 Jan 05:04:07 05:08:37 84° 257° (WSW) 05:13:04 437.445
DANDE 18 Jan 05:07:08 05:09:44 73° 276° (W) 05:12:38 436.750
M-CUBED/EXP-1 PRIME 18 Jan 05:25:53 05:29:23 21° 254° (WSW) 05:32:51 437.505
Cosmos 2504 18 Jan 05:31:46 05:33:28 11° 266° (W) 05:35:11 435.465 / 435.565
BEESAT 3 18 Jan 05:33:39 05:34:05 10° 248° (WSW) 05:34:31 437.485
SRMSAT 18 Jan 05:42:49 05:46:36 17° 194° (SSW) 05:50:22 437.500
NOAA 15 18 Jan 06:03:38 06:07:16 19° 103° (ESE) 06:10:53 137.62
STARS 18 Jan 06:06:24 06:10:16 30° 258° (WSW) 06:14:08 437.465
BRITE-PL 18 Jan 06:09:58 06:14:01 35° 282° (WNW) 06:17:53 437.365/2234.400
CUBESAT XI-V 18 Jan 06:17:18 06:21:03 24° 258° (WSW) 06:24:47 437.345
HORYU 2 18 Jan 06:26:41 06:31:03 55° 282° (WNW) 06:35:27 437.375
GOMX 1 18 Jan 06:28:46 06:32:55 68° 281° (W) 06:37:03 467.674
O/OREOS (USA 219) 18 Jan 06:31:19 06:35:44 52° 105° (ESE) 06:40:06 437.305
CUTE-I 18 Jan 06:39:48 06:44:57 50° 103° (ESE) 06:50:08 437.470
STRAND 1 18 Jan 06:53:37 06:54:15 10° 77° (ENE) 06:54:53 437.568
NOAA 18 18 Jan 07:02:15 07:07:22 42° 103° (ESE) 07:12:31 137.9125
GONETS M04 18 Jan 07:09:14 07:10:12 10° 87° (E) 07:11:10
LilacSat-2 18 Jan 07:10:28 07:14:07 41° 281° (W) 07:17:48 437.200
SO-50 18 Jan 07:13:58 07:17:50 24° 112° (ESE) 07:21:40 436.795
HO-68 18 Jan 07:21:21 07:26:40 23° 105° (ESE) 07:31:57 435.675
Cubesat XI-IV 18 Jan 07:21:56 07:27:06 52° 283° (WNW) 07:32:19 437.490
DOVE 4 18 Jan 07:23:00 07:26:50 39° 281° (WNW) 07:30:49 437.250
CINEMA 3 18 Jan 07:35:38 07:39:43 41° 102° (ESE) 07:44:00 145.822/145.860
SRMSAT 18 Jan 07:36:13 07:36:45 10° 184° (S) 07:37:16 437.500
AIST 2 18 Jan 07:39:34 07:43:46 85° 68° (ENE) 07:47:56 435.215
NOAA 15 18 Jan 07:42:20 07:46:45 28° 283° (WNW) 07:51:11 137.62
Cosmos 2499 18 Jan 07:54:57 08:01:24 39° 87° (E) 08:08:03 435.465 / 435.565
JUGNU 18 Jan 08:01:08 08:04:26 15° 167° (SSE) 08:07:43 437.505
CUTE 1.7 + AOD 2 18 Jan 08:09:44 08:13:56 60° 102° (ESE) 08:18:08 437.475
STRAND 1 18 Jan 08:28:19 08:33:09 44° 257° (WSW) 08:37:57 437.568
CANX-2 18 Jan 08:38:30 08:42:30 40° 281° (WNW) 08:46:30 2200.000
NOAA 18 18 Jan 08:45:27 08:47:45 13° 284° (WNW) 08:50:03 137.9125
CUBEBUG 2 18 Jan 08:49:41 08:54:10 74° 102° (ESE) 08:58:48 437.445
SO-50 18 Jan 08:54:49 08:58:03 18° 292° (WNW) 09:01:17 436.795
SEEDS 18 Jan 08:55:38 08:59:41 46° 281° (WNW) 09:03:44 437.485
Oscar 11 18 Jan 08:56:44 08:59:52 19° 102° (ESE) 09:03:00 145.826/435.025
GONETS M04 18 Jan 08:57:47 09:06:36 80° 268° (W) 09:15:29
COMPASS 1 18 Jan 09:06:33 09:10:38 55° 281° (WNW) 09:14:42 437.405
HO-68 18 Jan 09:07:31 09:14:02 39° 285° (WNW) 09:20:36 435.675
AAUSAT CUBESAT 2 18 Jan 09:20:53 09:24:53 48° 281° (W) 09:28:52 437.432
UWE-3 18 Jan 09:24:16 09:28:43 65° 281° (WNW) 09:33:19 435.000/436.395/437.385
SRMSAT 18 Jan 09:25:34 09:27:07 11° 173° (S) 09:28:41 437.500
FUNcube-1 18 Jan 09:28:12 09:32:38 65° 101° (ESE) 09:37:10 145.935
DELFI C3 18 Jan 09:30:16 09:31:57 12° 102° (ESE) 09:33:38 145.870
PRISM 18 Jan 09:35:31 09:39:19 35° 78° (ENE) 09:43:06 437.425
JUGNU 18 Jan 09:48:41 09:53:56 33° 161° (SSE) 09:59:10 437.505
Cosmos 2499 18 Jan 09:49:30 09:54:12 19° 266° (W) 09:59:03 435.465 / 435.565
ZACube-1 18 Jan 09:49:38 09:54:00 55° 281° (WNW) 09:58:29 437.345
ISS 18 Jan 09:56:17 09:59:08 28° 235° (SW) 10:02:00 145.825
HUMSAT D 18 Jan 10:25:51 10:29:55 42° 101° (ESE) 10:34:00 437.325/437.525
Oscar 11 18 Jan 10:32:52 10:35:43 17° 282° (WNW) 10:38:35 145.826/435.025
UNISAT 6 18 Jan 10:43:11 10:47:35 71° 78° (ENE) 10:51:51 437.425
RS-15 18 Jan 10:52:30 11:03:48 49° 69° (ENE) 11:14:30 29.354- 29.394
TIGRISAT 18 Jan 10:57:24 11:01:48 79° 257° (WSW) 11:06:05 435.000
DELFI C3 18 Jan 11:03:29 11:06:29 21° 282° (WNW) 11:09:29 145.870
JAS-2 18 Jan 11:08:49 11:13:18 29° 78° (ENE) 11:17:44 435.910
ANTELSAT 18 Jan 11:12:07 11:16:17 43° 258° (WSW) 11:20:22 437.575/2403.000
SRMSAT 18 Jan 11:12:52 11:17:10 20° 164° (SSE) 11:21:28 437.500
POPSAT HIP 1 18 Jan 11:36:57 11:39:46 18° 78° (ENE) 11:42:35 437.405
JUGNU 18 Jan 11:37:08 11:43:01 89° 346° (NNW) 11:48:54 437.505
PCSat 18 Jan 11:39:22 11:41:18 12° 70° (ENE) 11:43:14 145.827
CUBEBUG 1 18 Jan 11:50:21 11:53:45 23° 102° (ESE) 11:57:09 437.445
DUCHIFAT 1 18 Jan 11:50:44 11:54:04 23° 78° (ENE) 11:57:22 145.980
NANOSAT C BR1 18 Jan 11:54:27 11:58:08 29° 78° (ENE) 12:01:47 145.865
BY70-1 18 Jan 11:58:30 12:01:08 28° 283° (WNW) 12:03:35 436.1900
AISAT 18 Jan 11:59:56 12:02:55 18° 102° (ESE) 12:05:55 437.250
ESTCUBE 1 18 Jan 12:08:58 12:13:28 89° 315° (NW) 12:17:59 437.505/2401.250
PHONESAT 2.4 18 Jan 12:18:24 12:20:40 49° 223° (SW) 12:22:58 2401.200-2431.200
50 SAT 18 Jan 12:31:30 12:34:38 30° 101° (ESE) 12:37:45 437.505
VELOX 1 18 Jan 12:32:13 12:36:27 50° 102° (ESE) 12:40:41 145.980
BUGSAT 1 18 Jan 12:36:11 12:39:45 28° 79° (ENE) 12:43:16 437.445
QB50P1 18 Jan 12:44:40 12:48:40 41° 258° (WSW) 12:52:37 145.935-145.965
POLYITAN 1 18 Jan 12:48:03 12:51:57 36° 258° (WSW) 12:55:49 437.675
QB50P2 18 Jan 12:49:18 12:53:05 32° 258° (WSW) 12:56:50 145.880/145.840
JAS-2 18 Jan 12:55:15 12:58:09 15° 256° (WSW) 13:01:01 435.910
AO-85 18 Jan 12:57:16 13:00:54 19° 113° (ESE) 13:04:24 145.980
SRMSAT 18 Jan 13:00:54 13:06:40 49° 159° (SSE) 13:12:26 437.500
RS-15 18 Jan 13:06:05 13:15:41 30° 249° (WSW) 13:25:02 29.354- 29.394
POPSAT HIP 1 18 Jan 13:12:25 13:15:17 18° 258° (WSW) 13:18:07 437.405
DX 1 18 Jan 13:13:10 13:17:28 76° 103° (ESE) 13:21:48 434.975-435.025
UKube-1 18 Jan 13:17:44 13:21:57 57° 102° (ESE) 13:26:10 .
PCSat 18 Jan 13:19:21 13:24:27 44° 251° (WSW) 13:29:34 145.827
SPROUT 18 Jan 13:21:07 13:25:10 44° 282° (WNW) 13:29:16 437.525
TISAT 1 18 Jan 13:24:46 13:26:59 14° 102° (ESE) 13:29:12 437.305
JUGNU 18 Jan 13:26:55 13:32:07 33° 341° (NNW) 13:37:21 437.505
DUCHIFAT 1 18 Jan 13:27:27 13:29:27 13° 258° (WSW) 13:31:28 145.980
CUBEBUG 1 18 Jan 13:27:31 13:29:46 14° 282° (WNW) 13:32:00 437.445
NANOSAT C BR1 18 Jan 13:33:17 13:33:33 10° 257° (WSW) 13:33:50 145.865
AISAT 18 Jan 13:36:04 13:39:07 19° 282° (WNW) 13:42:10 437.250
BUGSAT 1 18 Jan 14:14:01 14:14:49 10° 257° (WSW) 14:15:37 437.445
Gurwin Techsat 1B 18 Jan 14:23:35 14:28:49 59° 77° (ENE) 14:34:01 435.225
BEESAT 18 Jan 14:25:35 14:27:52 13° 103° (ESE) 14:30:09 436.000
SWISSCUBE 18 Jan 14:26:16 14:29:14 16° 103° (ESE) 14:32:10 437.505
Oscar 19 18 Jan 14:30:33 14:35:32 49° 258° (WSW) 14:40:31 437.125/150
AO-85 18 Jan 14:36:47 14:41:09 27° 291° (WNW) 14:45:18 145.980
YUBILEINY 18 Jan 14:48:29 14:57:09 64° 93° (E) 15:05:48 435.215
SRMSAT 18 Jan 14:49:59 14:55:53 61° 339° (NNW) 15:01:49 437.500
TISAT 1 18 Jan 14:59:08 15:02:20 22° 282° (WNW) 15:05:34 437.305
AIST 1 18 Jan 15:03:20 15:07:34 46° 274° (W) 15:11:46
ITAMSAT 1 18 Jan 15:08:36 15:12:49 25° 77° (ENE) 15:17:00 435.822/435.867
Cosmos 2491 18 Jan 15:08:37 15:17:25 81° 267° (W) 15:26:17 435.465 / 435.565
AO-7 18 Jan 15:09:20 15:15:38 24° 73° (ENE) 15:21:55 29.400- 29.500
JUGNU 18 Jan 15:18:22 15:21:38 15° 348° (NNW) 15:24:56 437.505
